User: anonymous   Login
Location: Unspecified
(0.0000°N, 0.0000°E)
Time: 05:24:58
(UTC+00:00)
Language:

MUOS 3 - Orbit

View from above orbital plane
View from above orbital plane
View from above satellite
View from above satellite

Ground track
Ground track

The orbit data is extracted from the following two-line orbital elements,

1 40374U 15002A   18248.01808161 0.00000000  00000-0  00000-0 0    07
2 40374   3.5410 335.1178 0052898 177.5152 182.5249  1.00270000    02
Epoch (UTC): 05 September 2018 00:26:02
Eccentricity: 0.0052898
inclination: 3.5410°
perigee height: 35563 km
apogee height: 36010 km
right ascension of ascending node: 335.1178°
argument of perigee: 177.5152°
revolutions per day: 1.00270000
mean anomaly at epoch: 182.5249°
orbit number at epoch: 0

The dashed part of the orbit path shows where the satellite is in the earth's shadow,  

DLR